Flight Track Log - Related Links

Times and Time Zones

All times are in EDT time to prevent confusion due to time zone crossing. See the EJA922 flight status page for this flight to view local times or setup timezone preferences in your user account.

Time Position Orientation Groundspeed Altitude Reporting Facility
EDT Latitude Longitude Course Direction KTS MPH feet Rate Location/Type
Mon 03:47:27 PM 39.1000 -94.6000 229° Southwest 175 201 1,600  Level Kansas City TRACON
Mon 03:48:21 PM 39.0667 -94.6500 229° Southwest 208 239 4,300 2,556 Climbing Kansas City TRACON
Mon 03:49:15 PM 39.0500 -94.7167 252° West 272 313 6,200 2,765 Climbing Kansas City TRACON
Mon 03:50:03 PM 39.0667 -94.8000 284° West 293 337 9,000 3,146 Climbing Kansas City TRACON
Mon 03:50:37 PM 39.1008 -94.8292 326° Northwest 284 327 10,500 2,000 Climbing Kansas City Center
Mon 03:52:39 PM 39.2728 -94.8806 347° North 368 423 14,200 1,710 Climbing Kansas City Center
Mon 03:53:43 PM 39.3719 -94.8489 14° North 385 443 15,800 1,694 Climbing Kansas City Center
Mon 03:54:43 PM 39.4897 -94.8111 14° North 392 451 17,700 1,770 Climbing Kansas City Center
Mon 03:55:45 PM 39.5919 -94.7778 14° North 395 455 19,400 1,536 Climbing Kansas City Center
Mon 03:56:48 PM 39.6967 -94.7439 14° North 403 464 20,900 1,645 Climbing Kansas City Center
Mon 03:57:49 PM 39.8181 -94.7044 14° North 402 463 22,800 1,742 Climbing Kansas City Center
Mon 03:58:52 PM 39.9222 -94.6694 14° North 404 465 24,500 1,694 Climbing Kansas City Center
Mon 03:59:53 PM 40.0472 -94.6489 North 405 466 26,300 1,500 Climbing Kansas City Center
Mon 04:00:56 PM 40.1578 -94.6364 North 416 479 27,600 1,113 Climbing Kansas City Center
Mon 04:01:57 PM 40.2922 -94.6208 North 432 497 28,600 1,029 Climbing Kansas City Center
Mon 04:02:41 PM 40.3839 -94.6089 North 436 502 29,400 1,019 Climbing Minneapolis Center
Mon 04:03:43 PM 40.5089 -94.5853 North 450 518 30,400 823 Climbing Minneapolis Center
Mon 04:04:45 PM 40.6289 -94.5397 16° North 462 532 31,100 774 Climbing Minneapolis Center
Mon 04:05:47 PM 40.7564 -94.4956 15° North 469 540 32,000 1,258 Climbing Minneapolis Center
Mon 04:06:49 PM 40.9114 -94.4403 15° North 478 550 33,700 1,403 Climbing Minneapolis Center
Mon 04:07:51 PM 41.0397 -94.3936 15° North 480 552 34,900 629 Climbing Minneapolis Center
Mon 04:08:53 PM 41.1772 -94.3442 15° North 486 559 35,000 48 Climbing Minneapolis Center
Mon 04:09:55 PM 41.3158 -94.2936 15° North 504 580 35,000  Level Minneapolis Center
Mon 04:10:57 PM 41.4556 -94.2419 15° North 517 595 35,000  Level Minneapolis Center
Mon 04:11:59 PM 41.5892 -94.1936 15° North 521 600 35,000  Level Minneapolis Center
Mon 04:13:01 PM 41.7319 -94.1411 15° North 515 593 35,000  Level Minneapolis Center
Mon 04:14:03 PM 41.8956 -94.0800 16° North 511 588 35,000 -194 Level Minneapolis Center
Mon 04:15:05 PM 42.0319 -94.0306 15° North 509 586 34,600 -919 Descending Minneapolis Center
Mon 04:16:07 PM 42.1669 -93.9800 16° North 505 581 33,100 -774 Descending Minneapolis Center
Mon 04:17:09 PM 42.2972 -93.9306 16° North 501 577 33,000 -48 Descending Minneapolis Center
Mon 04:18:11 PM 42.4322 -93.8783 16° North 507 583 33,000  Level Minneapolis Center
Mon 04:19:13 PM 42.5958 -93.8169 15° North 511 588 33,000  Level Minneapolis Center
Mon 04:20:16 PM 42.7311 -93.7642 16° North 509 586 33,000  Level Minneapolis Center
Mon 04:21:18 PM 42.8669 -93.7117 16° North 511 588 33,000  Level Minneapolis Center
Mon 04:22:20 PM 43.0039 -93.6581 16° North 514 592 33,000 -581 Level Minneapolis Center
Mon 04:23:22 PM 43.1406 -93.6067 15° North 513 590 31,800 -2,226 Descending Minneapolis Center
Mon 04:24:24 PM 43.3072 -93.5497 14° North 518 596 28,400 -3,097 Descending Minneapolis Center
Mon 04:25:26 PM 43.4469 -93.5369 North 508 585 25,400 -2,758 Descending Minneapolis Center
Mon 04:26:28 PM 43.5808 -93.5236 North 496 571 22,700 -2,565 Descending Minneapolis Center
Mon 04:27:30 PM 43.7100 -93.5114 North 476 548 20,100 -2,419 Descending Minneapolis Center
Mon 04:28:32 PM 43.8358 -93.4997 North 461 531 17,700 -2,613 Descending Minneapolis Center
Mon 04:29:34 PM 43.9808 -93.4872 North 443 510 14,700 -2,688 Descending Minneapolis Center
Mon 04:30:37 PM 44.0944 -93.4753 North 420 483 12,100 -1,776 Descending Minneapolis Center
Mon 04:31:39 PM 44.2086 -93.4650 North 414 476 11,000 -532 Descending Minneapolis Center
Mon 04:32:41 PM 44.3153 -93.4050 22° Northeast 414 476 11,000  Level Minneapolis Center
Mon 04:33:43 PM 44.4183 -93.3319 27° Northeast 417 480 11,000  Level Minneapolis Center
Mon 04:34:45 PM 44.5417 -93.2444 27° Northeast 417 480 11,000 -97 Level Minneapolis Center
Mon 04:35:47 PM 44.6472 -93.2058 15° North 390 449 10,800 -581 Descending Minneapolis Center
Mon 04:36:49 PM 44.7372 -93.2478 342° North 310 357 9,800 -1,355 Descending Minneapolis Center
Mon 04:37:51 PM 44.8083 -93.2939 335° Northwest 287 330 8,000 -1,694 Descending Minneapolis Center
Mon 04:38:53 PM 44.8475 -93.3792 303° West 267 307 6,300 -1,258 Descending Minneapolis Center
Mon 04:39:55 PM 44.8797 -93.4642 298° West 246 283 5,400 -1,113 Descending Minneapolis Center
Mon 04:40:57 PM 44.9339 -93.5081 330° Northwest 267 307 4,000 -677 Descending Minneapolis Center
Mon 04:41:59 PM 44.9561 -93.4275 69° East 221 254 4,000 -576 Level Minneapolis Center
Mon 04:43:02 PM 44.9347 -93.3431 110° East 189 217 2,800 -1,056 Descending Minneapolis Center
Mon 04:44:04 PM 44.9136 -93.2933 121° Southeast 147 169 1,800 -823 Descending Minneapolis Center
Mon 04:45:06 PM 44.8933 -93.2475 122° Southeast 138 159 1,100 -677 Descending Minneapolis Center
Mon 04:47:00 PM 44.8820 -93.2218 50° Northeast  Level Estimated

Login

Don't have an account? Register now (free) for customized features, flight alerts, and more!